GEESAT-6 06 (65718 NORAD) Tracking and Keplerian Element Data

This shows tracking and keplerian element data for the satellite.

Feedback or suggestion? Click here.




ElementValue
Catalog65718
NameGEESAT-6 06
Epoch Orbit1297
Epoch Day354.20539735
Epoch Year2025
RAAN55.0253
Inclination49.9903
Eccentricity0.0012438
Argument of Perigee268.0648
Mean Anonmoly91.8869
Mean Motion14.9185827
Decay Rate2.087E-05
L11 65718U 25214G 25354.20539735 .00002087 00000+0 22805-3 0 9990
L22 65718 49.9903 55.0253 0012438 268.0648 91.8869 14.91858270 12970



Live tracking and technical data element details for GEESAT-6 06 (NORAD 65718). GEESAT-6 06 can be tracked NOW for your location showing map with azimuth and elevation plus other details from your city location.







IsCatalogInMostPopularTable: catalog: 65718, numindb: 5
Update: records affected: 1



GetName: 65718 GEESAT-6 06

Hit Count: updated at: Mon, 20 Apr 2026 08:43:04 GMT